• In Russia
  • List of Countries
  • For 7 days
  • Water Temperature
  • Weather Map
  • Weather Widgets
  • user-avatar
    Login

    Hourly Weather Giumri

    Today, 29 January, Wednesday

    Time Temperature Precipitation Wind Pressure Humidity
    00:00 -4°C° 0 mm 1 mps 631 mmHg 60%
    01:00 -4°C° 0 mm 1 mps 630 mmHg 60%
    02:00 -4°C° 0 mm 1 mps 630 mmHg 61%
    03:00 -4°C° 0 mm 1 mps 630 mmHg 63%
    04:00 -4°C° 0 mm 1 mps 630 mmHg 64%
    05:00 -6°C° 0 mm 1 mps 629 mmHg 65%
    06:00 -6°C° 0 mm 1 mps 629 mmHg 66%
    07:00 -6°C° 0 mm 1 mps 629 mmHg 65%
    08:00 -4°C° 0 mm 1 mps 630 mmHg 64%
    09:00 -3°C° 0 mm 1 mps 630 mmHg 62%
    10:00 -2°C° 0 mm 1 mps 630 mmHg 61%
    11:00 -1°C° 0 mm 1 mps 630 mmHg 60%
    12:00 -2°C° 0 mm 2 mps 630 mmHg 58%
    13:00 -2°C° 0 mm 2 mps 630 mmHg 59%
    14:00 0°C° 0 mm 1 mps 630 mmHg 59%
    15:00 -2°C° 0 mm 2 mps 630 mmHg 59%
    16:00 -1°C° 0 mm 1 mps 630 mmHg 61%
    17:00 -2°C° 0 mm 1 mps 630 mmHg 63%
    18:00 -3°C° 0 mm 1 mps 629 mmHg 65%
    19:00 -4°C° 0 mm 1 mps 630 mmHg 66%
    20:00 -4°C° 0 mm 1 mps 630 mmHg 67%
    21:00 -4°C° 0 mm 1 mps 630 mmHg 68%
    22:00 -6°C° 0 mm 1 mps 630 mmHg 69%
    23:00 -6°C° 0 mm 1 mps 630 mmHg 71%

    Tomorrow, 30 January, Thursday

    Time Temperature Precipitation Wind Pressure Humidity
    00:00 -6°C° 0 mm 1 mps 630 mmHg 72%
    01:00 -6°C° 0 mm 1 mps 630 mmHg 73%
    02:00 -7°C° 0 mm 1 mps 630 mmHg 75%
    03:00 -7°C° 0 mm 1 mps 630 mmHg 76%
    04:00 -7°C° 0 mm 1 mps 630 mmHg 78%
    05:00 -7°C° 0 mm 1 mps 630 mmHg 80%
    06:00 -7°C° 0 mm 1 mps 630 mmHg 82%
    07:00 -7°C° 0 mm 1 mps 631 mmHg 80%
    08:00 -6°C° 0 mm 1 mps 631 mmHg 79%
    09:00 -6°C° 0 mm 1 mps 631 mmHg 78%
    10:00 -4°C° 0 mm 1 mps 631 mmHg 77%
    11:00 -5°C° 0 mm 2 mps 631 mmHg 75%
    12:00 -4°C° 0 mm 2 mps 631 mmHg 74%
    13:00 -4°C° 0 mm 2 mps 630 mmHg 74%
    14:00 -3°C° 0 mm 2 mps 630 mmHg 73%
    15:00 -3°C° 0 mm 2 mps 630 mmHg 73%
    16:00 -4°C° 0 mm 2 mps 630 mmHg 75%
    17:00 -4°C° 0 mm 2 mps 629 mmHg 78%
    18:00 -5°C° 0 mm 2 mps 629 mmHg 81%
    19:00 -5°C° 0 mm 2 mps 629 mmHg 81%
    20:00 -5°C° 0 mm 2 mps 629 mmHg 81%
    21:00 -5°C° 0 mm 2 mps 629 mmHg 82%
    22:00 -5°C° 0 mm 2 mps 629 mmHg 82%
    23:00 -5°C° 0 mm 2 mps 628 mmHg 82%

    Day after tomorrow, 31 January, Friday

    Time Temperature Precipitation Wind Pressure Humidity
    00:00 -5°C° 0 mm 2 mps 628 mmHg 83%
    01:00 -5°C° 0 mm 2 mps 628 mmHg 83%
    02:00 -6°C° 0 mm 3 mps 628 mmHg 84%
    03:00 -6°C° 0 mm 3 mps 627 mmHg 84%
    04:00 -6°C° 0 mm 2 mps 627 mmHg 86%
    05:00 -6°C° 0 mm 2 mps 627 mmHg 87%
    06:00 -6°C° 0 mm 2 mps 626 mmHg 88%
    07:00 -6°C° 0 mm 3 mps 626 mmHg 88%
    08:00 -6°C° 0 mm 3 mps 627 mmHg 87%
    09:00 -5°C° 0 mm 3 mps 627 mmHg 86%
    10:00 -4°C° 0 mm 3 mps 626 mmHg 83%
    11:00 -4°C° 0 mm 3 mps 626 mmHg 80%
    12:00 -3°C° 0 mm 4 mps 626 mmHg 78%
    13:00 -1°C° 0 mm 3 mps 626 mmHg 77%
    14:00 -1°C° 0 mm 3 mps 625 mmHg 77%
    15:00 -1°C° 0 mm 3 mps 625 mmHg 76%
    16:00 -2°C° 0.1 mm 3 mps 625 mmHg 80%
    17:00 -3°C° 0.1 mm 2 mps 625 mmHg 84%
    18:00 -2°C° 0.1 mm 1 mps 625 mmHg 88%
    19:00 -2°C° 0.2 mm 1 mps 625 mmHg 89%
    20:00 -2°C° 0.2 mm 1 mps 625 mmHg 90%
    21:00 -2°C° 0.2 mm 1 mps 625 mmHg 91%
    22:00 -4°C° 0.7 mm 2 mps 625 mmHg 91%
    23:00 -4°C° 0.7 mm 2 mps 625 mmHg 91%

    1 February, Saturday

    Time Temperature Precipitation Wind Pressure Humidity
    00:00 -5°C° 0.7 mm 3 mps 625 mmHg 90%
    01:00 -5°C° 0.8 mm 3 mps 625 mmHg 91%
    02:00 -6°C° 0.8 mm 3 mps 625 mmHg 91%
    03:00 -6°C° 0.8 mm 3 mps 624 mmHg 91%
    04:00 -6°C° 0.2 mm 3 mps 624 mmHg 90%
    05:00 -7°C° 0.2 mm 3 mps 624 mmHg 90%
    06:00 -7°C° 0.2 mm 3 mps 624 mmHg 89%
    07:00 -7°C° 0.1 mm 3 mps 624 mmHg 87%
    08:00 -6°C° 0.1 mm 2 mps 625 mmHg 85%
    09:00 -6°C° 0.1 mm 2 mps 625 mmHg 82%
    10:00 -5°C° 0.1 mm 2 mps 625 mmHg 81%
    11:00 -4°C° 0.1 mm 2 mps 626 mmHg 80%
    12:00 -4°C° 0.1 mm 2 mps 626 mmHg 79%
    13:00 -4°C° 0.1 mm 2 mps 626 mmHg 79%
    14:00 -4°C° 0.1 mm 2 mps 626 mmHg 79%
    15:00 -4°C° 0.1 mm 2 mps 627 mmHg 80%
    16:00 -5°C° 0 mm 2 mps 627 mmHg 81%
    17:00 -6°C° 0 mm 2 mps 627 mmHg 83%
    18:00 -8°C° 0 mm 2 mps 627 mmHg 84%
    19:00 -8°C° 0 mm 2 mps 627 mmHg 83%
    20:00 -9°C° 0 mm 2 mps 628 mmHg 83%
    21:00 -10°C° 0 mm 2 mps 629 mmHg 82%
    22:00 -10°C° 0 mm 2 mps 629 mmHg 81%
    23:00 -12°C° 0 mm 2 mps 629 mmHg 81%

    2 February, Sunday

    Time Temperature Precipitation Wind Pressure Humidity
    00:00 -10°C° 0 mm 1 mps 629 mmHg 80%
    01:00 -11°C° 0 mm 1 mps 629 mmHg 78%
    02:00 -11°C° 0 mm 1 mps 629 mmHg 76%
    03:00 -11°C° 0 mm 1 mps 629 mmHg 73%
    04:00 -12°C° 0 mm 1 mps 630 mmHg 71%
    05:00 -12°C° 0 mm 1 mps 630 mmHg 68%
    06:00 -12°C° 0 mm 1 mps 630 mmHg 65%
    07:00 -11°C° 0 mm 1 mps 630 mmHg 65%
    08:00 -10°C° 0 mm 1 mps 631 mmHg 66%
    09:00 -9°C° 0 mm 1 mps 632 mmHg 66%
    10:00 -8°C° 0 mm 1 mps 632 mmHg 66%
    11:00 -7°C° 0 mm 1 mps 632 mmHg 66%
    12:00 -6°C° 0 mm 1 mps 632 mmHg 65%
    13:00 -6°C° 0 mm 1 mps 632 mmHg 67%
    14:00 -4°C° 0 mm 1 mps 632 mmHg 68%
    15:00 -4°C° 0 mm 1 mps 632 mmHg 69%
    16:00 -6°C° 0 mm 1 mps 631 mmHg 71%
    17:00 -8°C° 0 mm 1 mps 631 mmHg 73%
    18:00 -9°C° 0 mm 0 mps 631 mmHg 74%
    19:00 -9°C° 0 mm 1 mps 631 mmHg 74%
    20:00 -10°C° 0 mm 1 mps 632 mmHg 74%
    21:00 -10°C° 0 mm 1 mps 632 mmHg 75%
    22:00 -10°C° 0 mm 1 mps 632 mmHg 75%
    23:00 -11°C° 0 mm 1 mps 631 mmHg 76%

    3 February, Monday

    Time Temperature Precipitation Wind Pressure Humidity
    00:00 -11°C° 0 mm 1 mps 631 mmHg 77%
    01:00 -11°C° 0 mm 1 mps 631 mmHg 78%
    02:00 -11°C° 0 mm 1 mps 631 mmHg 79%
    03:00 -12°C° 0 mm 1 mps 631 mmHg 80%
    04:00 -12°C° 0 mm 1 mps 631 mmHg 81%
    05:00 -12°C° 0 mm 1 mps 630 mmHg 82%
    06:00 -12°C° 0 mm 1 mps 630 mmHg 83%
    07:00 -11°C° 0 mm 1 mps 630 mmHg 82%
    08:00 -11°C° 0 mm 1 mps 631 mmHg 81%
    09:00 -10°C° 0 mm 1 mps 631 mmHg 80%
    10:00 -9°C° 0 mm 1 mps 631 mmHg 78%
    11:00 -8°C° 0 mm 1 mps 630 mmHg 77%
    12:00 -8°C° 0 mm 2 mps 630 mmHg 75%
    13:00 -6°C° 0 mm 1 mps 630 mmHg 75%
    14:00 -6°C° 0 mm 1 mps 630 mmHg 75%
    15:00 -6°C° 0 mm 1 mps 629 mmHg 76%
    16:00 -7°C° 0 mm 1 mps 629 mmHg 77%
    17:00 -8°C° 0 mm 1 mps 629 mmHg 78%
    18:00 -9°C° 0 mm 1 mps 629 mmHg 80%
    19:00 -9°C° 0 mm 1 mps 628 mmHg 80%
    20:00 -9°C° 0 mm 1 mps 628 mmHg 81%
    21:00 -9°C° 0 mm 1 mps 628 mmHg 82%
    22:00 -9°C° 0 mm 1 mps 628 mmHg 83%
    23:00 -9°C° 0 mm 1 mps 628 mmHg 84%
    Show more